Time,TemperatureF,DewpointF,PressureIn,WindDirection,WindDirectionDegrees,WindSpeedMPH,WindSpeedGustMPH,Humidity,HourlyPrecipIn,Conditions,Clouds,dailyrainin,SolarRadiationWatts/m^2,SoftwareType,DateUTC
2013-04-13 00:14:00,18.0,5.0,-100.00,NW,307,8.0,13.0,56,0.00,,,0.00,0.000000,,2013-04-13 08:14:00,
2013-04-13 00:24:00,18.0,5.0,-100.00,NW,307,8.0,13.0,56,0.00,,,0.00,0.000000,,2013-04-13 08:24:00,
2013-04-13 00:33:00,18.0,5.0,-100.00,NW,307,8.0,13.0,56,0.00,,,0.00,0.000000,,2013-04-13 08:33:00,
2013-04-13 00:52:00,18.0,5.0,-100.00,NW,307,8.0,13.0,56,0.00,,,0.00,0.000000,,2013-04-13 08:52:00,
2013-04-13 01:13:00,18.0,6.0,-100.00,NW,311,7.0,13.0,58,0.00,,,0.00,0.000000,,2013-04-13 09:13:00,
2013-04-13 01:23:00,18.0,6.0,-100.00,NW,311,7.0,13.0,58,0.00,,,0.00,0.000000,,2013-04-13 09:23:00,
2013-04-13 01:34:00,18.0,6.0,-100.00,NW,311,7.0,13.0,58,0.00,,,0.00,0.000000,,2013-04-13 09:34:00,
2013-04-13 01:45:00,18.0,6.0,-100.00,NW,311,7.0,13.0,58,0.00,,,0.00,0.000000,,2013-04-13 09:45:00,
2013-04-13 01:52:00,18.0,6.0,-100.00,NW,311,7.0,13.0,58,0.00,,,0.00,0.000000,,2013-04-13 09:52:00,
2013-04-13 02:15:00,18.0,5.0,-100.00,NW,324,8.0,14.0,57,0.00,,,0.00,0.000000,,2013-04-13 10:15:00,
2013-04-13 02:23:00,18.0,5.0,-100.00,NW,324,8.0,14.0,57,0.00,,,0.00,0.000000,,2013-04-13 10:23:00,
2013-04-13 02:35:00,18.0,5.0,-100.00,NW,324,8.0,14.0,57,0.00,,,0.00,0.000000,,2013-04-13 10:35:00,
2013-04-13 02:44:00,18.0,5.0,-100.00,NW,324,8.0,14.0,57,0.00,,,0.00,0.000000,,2013-04-13 10:44:00,
2013-04-13 02:53:00,18.0,5.0,-100.00,NW,324,8.0,14.0,57,0.00,,,0.00,0.000000,,2013-04-13 10:53:00,
2013-04-13 03:13:00,17.0,3.0,-100.00,NW,323,7.0,12.0,53,0.00,,,0.00,0.000000,,2013-04-13 11:13:00,
2013-04-13 03:23:00,17.0,3.0,-100.00,NW,323,7.0,12.0,53,0.00,,,0.00,0.000000,,2013-04-13 11:23:00,
2013-04-13 03:33:00,17.0,3.0,-100.00,NW,323,7.0,12.0,53,0.00,,,0.00,0.000000,,2013-04-13 11:33:00,
2013-04-13 03:43:00,17.0,3.0,-100.00,NW,323,7.0,12.0,53,0.00,,,0.00,0.000000,,2013-04-13 11:43:00,
2013-04-13 03:52:00,17.0,3.0,-100.00,NW,323,7.0,12.0,53,0.00,,,0.00,0.000000,,2013-04-13 11:52:00,
2013-04-13 04:23:00,17.0,3.0,-100.00,NNW,335,7.0,14.0,53,0.00,,,0.00,0.000000,,2013-04-13 12:23:00,
2013-04-13 04:34:00,17.0,3.0,-100.00,NNW,335,7.0,14.0,53,0.00,,,0.00,0.000000,,2013-04-13 12:34:00,
2013-04-13 04:45:00,17.0,3.0,-100.00,NNW,335,7.0,14.0,53,0.00,,,0.00,0.000000,,2013-04-13 12:45:00,
2013-04-13 04:53:00,17.0,3.0,-100.00,NNW,335,7.0,14.0,53,0.00,,,0.00,0.000000,,2013-04-13 12:53:00,
2013-04-13 05:33:00,16.0,3.0,-100.00,NNW,332,6.0,11.0,55,0.00,,,-99.99,0.000000,,2013-04-13 13:33:00,
2013-04-13 05:45:00,16.0,3.0,-100.00,NNW,332,6.0,11.0,55,0.00,,,-99.99,0.000000,,2013-04-13 13:45:00,
2013-04-13 05:53:00,16.0,3.0,-100.00,NNW,332,6.0,11.0,55,0.00,,,-99.99,0.000000,,2013-04-13 13:53:00,
2013-04-13 06:23:00,15.0,3.0,-100.00,NNW,333,7.0,12.0,57,0.00,,,0.00,0.000000,,2013-04-13 14:23:00,
2013-04-13 06:35:00,15.0,3.0,-100.00,NNW,333,7.0,12.0,57,0.00,,,0.00,0.000000,,2013-04-13 14:35:00,
2013-04-13 06:44:00,15.0,3.0,-100.00,NNW,333,7.0,12.0,57,0.00,,,0.00,0.000000,,2013-04-13 14:44:00,
2013-04-13 07:26:00,14.0,2.0,-100.00,North,358,4.0,11.0,58,0.00,,,0.00,1.000000,,2013-04-13 15:26:00,
2013-04-13 07:34:00,14.0,2.0,-100.00,North,358,4.0,11.0,58,0.00,,,0.00,1.000000,,2013-04-13 15:34:00,
2013-04-13 07:43:00,14.0,2.0,-100.00,North,358,4.0,11.0,58,0.00,,,0.00,1.000000,,2013-04-13 15:43:00,
2013-04-13 07:53:00,14.0,2.0,-100.00,North,358,4.0,11.0,58,0.00,,,0.00,1.000000,,2013-04-13 15:53:00,
2013-04-13 08:24:00,18.0,4.0,-100.00,NNW,336,4.0,9.0,53,0.00,,,0.00,41.000000,,2013-04-13 16:24:00,
2013-04-13 08:34:00,18.0,4.0,-100.00,NNW,336,4.0,9.0,53,0.00,,,0.00,41.000000,,2013-04-13 16:34:00,
2013-04-13 08:44:00,18.0,4.0,-100.00,NNW,336,4.0,9.0,53,0.00,,,0.00,41.000000,,2013-04-13 16:44:00,
2013-04-13 08:53:00,18.0,4.0,-100.00,NNW,336,4.0,9.0,53,0.00,,,0.00,41.000000,,2013-04-13 16:53:00,
2013-04-13 09:19:00,22.0,1.0,-100.00,North,358,5.0,10.0,40,0.00,,,0.00,69.000000,,2013-04-13 17:19:00,
2013-04-13 09:43:00,22.0,1.0,-100.00,North,358,5.0,10.0,40,0.00,,,0.00,69.000000,,2013-04-13 17:43:00,
2013-04-13 09:52:00,22.0,1.0,-100.00,North,358,5.0,10.0,40,0.00,,,0.00,69.000000,,2013-04-13 17:52:00,
2013-04-13 10:24:00,23.0,1.0,-100.00,North,354,7.0,13.0,38,0.00,,,0.00,328.000000,,2013-04-13 18:24:00,
2013-04-13 10:32:00,23.0,1.0,-100.00,North,354,7.0,13.0,38,0.00,,,0.00,328.000000,,2013-04-13 18:32:00,
2013-04-13 10:42:00,23.0,1.0,-100.00,North,354,7.0,13.0,38,0.00,,,0.00,328.000000,,2013-04-13 18:42:00,
2013-04-13 10:52:00,23.0,1.0,-100.00,North,354,7.0,13.0,38,0.00,,,0.00,328.000000,,2013-04-13 18:52:00,
2013-04-13 11:22:00,25.0,1.0,-100.00,North,6,10.0,18.0,34,0.00,,,0.00,480.000000,,2013-04-13 19:22:00,
2013-04-13 11:32:00,25.0,1.0,-100.00,North,6,10.0,18.0,34,0.00,,,0.00,480.000000,,2013-04-13 19:32:00,
2013-04-13 11:42:00,25.0,1.0,-100.00,North,6,10.0,18.0,34,0.00,,,0.00,480.000000,,2013-04-13 19:42:00,
2013-04-13 11:52:00,25.0,1.0,-100.00,North,6,10.0,18.0,34,0.00,,,0.00,480.000000,,2013-04-13 19:52:00,
2013-04-13 12:22:00,26.0,2.0,-100.00,North,2,10.0,19.0,35,0.00,,,0.00,610.000000,,2013-04-13 20:22:00,
2013-04-13 12:32:00,26.0,2.0,-100.00,North,2,10.0,19.0,35,0.00,,,0.00,610.000000,,2013-04-13 20:32:00,
2013-04-13 12:42:00,26.0,2.0,-100.00,North,2,10.0,19.0,35,0.00,,,0.00,610.000000,,2013-04-13 20:42:00,
2013-04-13 12:52:00,26.0,2.0,-100.00,North,2,10.0,19.0,35,0.00,,,0.00,610.000000,,2013-04-13 20:52:00,
2013-04-13 13:12:00,27.0,4.0,-100.00,NNW,337,8.0,16.0,36,0.00,,,0.00,705.000000,,2013-04-13 21:12:00,
2013-04-13 13:22:00,27.0,4.0,-100.00,NNW,337,8.0,16.0,36,0.00,,,0.00,705.000000,,2013-04-13 21:22:00,
2013-04-13 13:32:00,27.0,4.0,-100.00,NNW,337,8.0,16.0,36,0.00,,,0.00,705.000000,,2013-04-13 21:32:00,
2013-04-13 13:43:00,27.0,4.0,-100.00,NNW,337,8.0,16.0,36,0.00,,,0.00,705.000000,,2013-04-13 21:43:00,
2013-04-13 13:52:00,27.0,4.0,-100.00,NNW,337,8.0,16.0,36,0.00,,,0.00,705.000000,,2013-04-13 21:52:00,
2013-04-13 14:22:00,28.0,4.0,-100.00,NW,322,8.0,14.0,35,0.00,,,0.00,758.000000,,2013-04-13 22:22:00,
2013-04-13 14:33:00,28.0,4.0,-100.00,NW,322,8.0,14.0,35,0.00,,,0.00,758.000000,,2013-04-13 22:33:00,
2013-04-13 14:42:00,28.0,4.0,-100.00,NW,322,8.0,14.0,35,0.00,,,0.00,758.000000,,2013-04-13 22:42:00,
2013-04-13 14:52:00,28.0,4.0,-100.00,NW,322,8.0,14.0,35,0.00,,,0.00,758.000000,,2013-04-13 22:52:00,
2013-04-13 15:12:00,30.0,4.0,-100.00,North,351,9.0,19.0,32,0.00,,,0.00,760.000000,,2013-04-13 23:12:00,
2013-04-13 15:22:00,30.0,4.0,-100.00,North,351,9.0,19.0,32,0.00,,,0.00,760.000000,,2013-04-13 23:22:00,
2013-04-13 15:32:00,30.0,4.0,-100.00,North,351,9.0,19.0,32,0.00,,,0.00,760.000000,,2013-04-13 23:32:00,
2013-04-13 15:41:00,30.0,4.0,-100.00,North,351,9.0,19.0,32,0.00,,,0.00,760.000000,,2013-04-13 23:41:00,
2013-04-13 15:52:00,30.0,4.0,-100.00,North,351,9.0,19.0,32,0.00,,,0.00,760.000000,,2013-04-13 23:52:00,
2013-04-13 16:12:00,31.0,4.0,-100.00,NNW,345,8.0,18.0,31,0.00,,,0.00,717.000000,,2013-04-14 00:12:00,
2013-04-13 16:22:00,31.0,4.0,-100.00,NNW,345,8.0,18.0,31,0.00,,,0.00,717.000000,,2013-04-14 00:22:00,
2013-04-13 16:32:00,31.0,4.0,-100.00,NNW,345,8.0,18.0,31,0.00,,,0.00,717.000000,,2013-04-14 00:32:00,
2013-04-13 16:42:00,31.0,4.0,-100.00,NNW,345,8.0,18.0,31,0.00,,,0.00,717.000000,,2013-04-14 00:42:00,
2013-04-13 16:52:00,31.0,4.0,-100.00,NNW,345,8.0,18.0,31,0.00,,,0.00,717.000000,,2013-04-14 00:52:00,
2013-04-13 17:12:00,31.0,4.0,-100.00,North,354,8.0,17.0,31,0.00,,,0.00,624.000000,,2013-04-14 01:12:00,
2013-04-13 17:22:00,31.0,4.0,-100.00,North,354,8.0,17.0,31,0.00,,,0.00,624.000000,,2013-04-14 01:22:00,
2013-04-13 17:32:00,31.0,4.0,-100.00,North,354,8.0,17.0,31,0.00,,,0.00,624.000000,,2013-04-14 01:32:00,
2013-04-13 17:42:00,31.0,4.0,-100.00,North,354,8.0,17.0,31,0.00,,,0.00,624.000000,,2013-04-14 01:42:00,
2013-04-13 17:52:00,31.0,4.0,-100.00,North,354,8.0,17.0,31,0.00,,,0.00,624.000000,,2013-04-14 01:52:00,
2013-04-13 18:22:00,31.0,7.0,-100.00,NNW,327,8.0,14.0,35,0.00,,,0.00,388.000000,,2013-04-14 02:22:00,
2013-04-13 18:32:00,31.0,7.0,-100.00,NNW,327,8.0,14.0,35,0.00,,,0.00,388.000000,,2013-04-14 02:32:00,
2013-04-13 18:42:00,31.0,7.0,-100.00,NNW,327,8.0,14.0,35,0.00,,,0.00,388.000000,,2013-04-14 02:42:00,
2013-04-13 18:52:00,31.0,7.0,-100.00,NNW,327,8.0,14.0,35,0.00,,,0.00,388.000000,,2013-04-14 02:52:00,
2013-04-13 19:12:00,29.0,5.0,-100.00,NW,317,9.0,17.0,35,0.00,,,0.00,332.000000,,2013-04-14 03:12:00,
2013-04-13 19:22:00,29.0,5.0,-100.00,NW,317,9.0,17.0,35,0.00,,,0.00,332.000000,,2013-04-14 03:22:00,
2013-04-13 19:33:00,29.0,5.0,-100.00,NW,317,9.0,17.0,35,0.00,,,0.00,332.000000,,2013-04-14 03:33:00,
2013-04-13 19:42:00,29.0,5.0,-100.00,NW,317,9.0,17.0,35,0.00,,,0.00,332.000000,,2013-04-14 03:42:00,
2013-04-13 19:52:00,29.0,5.0,-100.00,NW,317,9.0,17.0,35,0.00,,,0.00,332.000000,,2013-04-14 03:52:00,
2013-04-13 20:22:00,28.0,5.0,-100.00,NW,323,8.0,15.0,37,0.00,,,0.00,93.000000,,2013-04-14 04:22:00,
2013-04-13 20:32:00,28.0,5.0,-100.00,NW,323,8.0,15.0,37,0.00,,,0.00,93.000000,,2013-04-14 04:32:00,
2013-04-13 20:42:00,28.0,5.0,-100.00,NW,323,8.0,15.0,37,0.00,,,0.00,93.000000,,2013-04-14 04:42:00,
2013-04-13 20:52:00,28.0,5.0,-100.00,NW,323,8.0,15.0,37,0.00,,,0.00,93.000000,,2013-04-14 04:52:00,
2013-04-13 21:12:00,25.0,6.0,-100.00,NW,309,7.0,13.0,43,0.00,,,0.00,49.000000,,2013-04-14 05:12:00,
2013-04-13 21:22:00,25.0,6.0,-100.00,NW,309,7.0,13.0,43,0.00,,,0.00,49.000000,,2013-04-14 05:22:00,
2013-04-13 21:32:00,25.0,6.0,-100.00,NW,309,7.0,13.0,43,0.00,,,0.00,49.000000,,2013-04-14 05:32:00,
2013-04-13 21:42:00,25.0,6.0,-100.00,NW,309,7.0,13.0,43,0.00,,,0.00,49.000000,,2013-04-14 05:42:00,
2013-04-13 21:52:00,25.0,6.0,-100.00,NW,309,7.0,13.0,43,0.00,,,0.00,49.000000,,2013-04-14 05:52:00,
2013-04-13 22:22:00,23.0,7.0,-100.00,NW,306,9.0,14.0,50,0.00,,,0.00,4.000000,,2013-04-14 06:22:00,
2013-04-13 22:32:00,23.0,7.0,-100.00,NW,306,9.0,14.0,50,0.00,,,0.00,4.000000,,2013-04-14 06:32:00,
2013-04-13 22:42:00,23.0,7.0,-100.00,NW,306,9.0,14.0,50,0.00,,,0.00,4.000000,,2013-04-14 06:42:00,
2013-04-13 22:52:00,23.0,7.0,-100.00,NW,306,9.0,14.0,50,0.00,,,0.00,4.000000,,2013-04-14 06:52:00,
2013-04-13 23:12:00,22.0,8.0,-100.00,WNW,300,8.0,13.0,54,0.00,,,0.00,0.000000,,2013-04-14 07:12:00,
2013-04-13 23:22:00,22.0,8.0,-100.00,WNW,300,8.0,13.0,54,0.00,,,0.00,0.000000,,2013-04-14 07:22:00,
2013-04-13 23:32:00,22.0,8.0,-100.00,WNW,300,8.0,13.0,54,0.00,,,0.00,0.000000,,2013-04-14 07:32:00,
2013-04-13 23:42:00,22.0,8.0,-100.00,WNW,300,8.0,13.0,54,0.00,,,0.00,0.000000,,2013-04-14 07:42:00,
2013-04-13 23:52:00,22.0,8.0,-100.00,WNW,300,8.0,13.0,54,0.00,,,0.00,0.000000,,2013-04-14 07:52:00,